Tracking 19903 objects as of 16-Oct-2019
HD Live streaming from Space Station
objects crossing your sky now

FLOCK 3R 2

Track FLOCK 3R 2 now!
10-day predictions
FLOCK 3R 2 is classified as:


NORAD ID: 43748
Int'l Code: 2018-096AF
Perigee: 475.8 km
Apogee: 502.3 km
Inclination: 97.5 °
Period: 94.2 minutes
Semi major axis: 6860 km
RCS: Unknown
Launch date: November 29, 2018
Source: United States (US)
Launch site: SRIHARIKOTA (SRI)
aabbcc
Your satellite tracking list
Your tracking list is empty




NASA's NSSDC Master Catalog

Two Line Element Set (TLE):
1 43748U 18096AF  19288.88080898 +.00002601 +00000-0 +97637-4 0  9992
2 43748 097.4508 359.0835 0019320 276.4286 083.4753 15.27971721048952
Source of the keplerian elements: AFSPC